Theta_e
306 306 306 306 306 306 306 306 306 306 306 306 306 306 306 306 307 307 308 309 309 310 311 311 310 310 309 308 308 307 305 304 304 305 305 304 303 303 303 303 300 297 294
304 305 305 305 305 305 305 305 305 305 306 305 306 305 305 305 305 305 306 306 307 306 307 308 308 308 308 307 307 306 305 304 303 303 303 302 301 300 299 297 294 292 290
301 302 302 302 302 302 303 303 304 304 304 305 303 303 303 303 303 303 304 304 304 305 305 306 306 306 306 305 305 305 304 304 302 301 301 298 296 295 292 289 289 288 287
300 300 300 300 300 300 300 301 301 302 302 302 303 303 302 302 302 301 301 301 302 302 302 302 304 304 305 305 304 304 304 302 300 299 298 296 292 290 289 288 285 285 286
299 299 298 298 298 298 299 299 299 299 299 299 300 301 301 301 301 301 301 300 299 299 300 301 302 303 303 304 303 302 301 300 298 296 296 291 288 286 286 286 285 284 284
298 297 297 297 297 296 296 296 297 297 297 297 297 297 298 299 299 299 299 300 298 298 298 299 300 300 300 300 300 299 299 298 296 294 294 292 288 287 287 285 284 283 283
297 297 296 296 296 295 295 295 295 294 294 294 294 294 295 296 296 297 298 298 298 298 298 297 297 297 298 297 297 296 296 295 295 294 292 291 290 289 287 284 284 284 284
295 294 294 294 294 294 294 294 294 293 292 292 292 293 293 294 294 295 295 295 295 296 296 295 294 294 294 293 292 292 292 292 292 291 291 290 289 288 286 285 284 284 284
293 292 292 293 293 293 292 292 292 291 291 291 291 291 291 292 292 292 292 292 293 293 293 292 292 291 291 289 289 289 289 289 289 289 288 288 287 286 286 285 284 284 283
291 291 292 292 292 292 292 291 291 290 290 289 290 290 290 290 290 291 290 289 289 290 290 289 288 287 287 288 288 288 287 286 287 286 286 286 285 285 286 287 286 285 283
290 290 291 291 291 290 290 290 290 289 289 289 289 289 289 289 289 289 289 288 289 288 288 287 286 286 286 287 287 286 286 286 286 286 286 286 286 285 285 286 286 286 284
289 289 289 290 289 289 289 288 288 287 287 287 287 287 288 288 287 287 287 288 287 286 285 285 285 286 287 286 286 286 286 286 286 285 285 285 285 284 284 284 284 284 283
285 287 287 287 288 287 285 286 287 286 285 285 283 283 284 285 285 286 286 285 285 284 284 284 285 286 286 286 286 286 286 286 285 285 284 284 284 284 284 283 282 281 281
282 283 285 285 284 284 283 282 284 285 284 283 282 282 283 284 284 285 285 285 284 284 285 286 286 286 286 286 285 286 286 286 286 285 284 284 283 282 282 281 279 279 278
279 280 281 280 281 283 283 283 284 285 285 283 283 282 283 283 284 285 285 285 285 285 286 286 286 286 285 285 285 285 285 285 284 284 283 282 281 281 279 279 278 277 276
277 277 277 277 278 280 281 282 282 283 284 285 285 285 285 284 284 285 285 285 285 286 286 285 284 284 284 283 283 282 282 282 282 282 282 281 280 279 278 277 277 276 274
275 275 275 275 275 276 278 279 281 282 284 284 285 285 284 284 285 285 286 285 285 285 285 284 283 282 282 282 282 281 279 279 280 280 280 279 278 277 276 275 274 273 272
273 273 273 273 273 274 275 278 280 280 282 284 284 285 285 285 286 286 286 285 284 284 283 281 280 280 279 279 279 279 278 278 278 277 277 276 276 275 274 273 273 272 271
271 271 271 271 272 273 274 276 279 280 282 282 284 285 286 286 286 286 285 285 282 281 280 279 278 278 278 277 277 277 276 276 275 274 274 273 273 273 272 271 271 271 270
269 270 270 270 270 271 273 276 279 280 281 282 282 283 283 284 283 283 283 282 281 279 278 277 276 276 276 276 275 275 274 273 273 272 272 272 271 271 271 270 269 269 268
267 267 268 268 269 270 273 275 279 280 280 280 282 282 282 280 279 279 278 279 278 277 276 276 275 274 274 273 273 272 272 271 271 270 269 269 268 268 267 267 266 266 265
266 266 266 267 269 271 273 276 280 280 279 279 280 279 278 279 277 275 276 276 275 275 274 274 273 272 271 269 269 269 268 268 268 267 267 267 266 266 266 265 265 264 264
265 265 266 268 270 271 273 275 279 279 278 277 277 276 275 276 274 273 274 273 273 272 271 270 269 269 268 268 268 267 267 267 266 266 266 266 266 265 265 264 263 263 263
265 265 266 267 269 271 273 275 277 277 276 275 275 273 273 273 272 271 271 270 269 269 268 268 268 268 267 267 266 266 266 266 265 265 265 265 264 264 263 263 263 262 262
265 265 266 267 269 271 273 274 274 273 273 273 272 271 271 271 269 268 268 268 268 267 267 267 267 266 266 266 265 265 265 265 265 265 264 264 263 263 263 262 262 261 261
264 265 265 266 268 269 271 271 271 271 271 271 270 270 270 268 267 267 267 267 267 266 266 266 265 265 265 265 265 264 264 264 264 264 263 263 263 263 262 262 261 261 261
Wind_Speed
21 19 18 17 16 15 14 14 14 15 15 16 17 20 22 23 23 25 29 32 30 32 32 34 36 35 34 32 33 34 32 29 23 33 30 30 28 30 31 33 33 34 35
20 19 18 17 18 18 19 19 19 19 19 20 20 21 22 23 23 24 27 29 32 32 32 32 33 31 35 33 32 33 34 33 31 30 28 28 26 26 28 29 29 29 29
21 21 21 22 23 24 23 23 23 24 23 23 22 23 23 23 24 24 26 28 29 30 31 33 34 33 34 32 34 33 31 34 32 30 28 20 19 21 20 21 22 23 23
20 21 21 22 23 24 24 25 25 25 26 26 27 27 27 27 27 27 27 27 27 29 29 30 33 34 36 35 35 35 35 32 29 27 25 21 20 19 19 17 15 20 20
19 20 20 20 21 23 24 25 25 25 26 26 27 28 28 28 28 28 28 29 29 30 30 31 32 33 36 36 35 31 31 30 25 22 20 16 14 11 15 17 17 17 15
18 18 19 21 23 24 25 26 26 26 27 27 26 27 28 28 27 25 26 29 29 30 30 30 30 30 31 31 30 30 31 28 27 22 20 15 14 14 16 16 13 9 4
17 20 22 25 28 29 29 30 31 31 29 28 28 27 27 27 24 22 21 24 24 25 26 28 28 26 25 26 27 27 28 27 28 25 20 18 15 19 17 17 15 11 4
21 24 26 28 30 31 32 32 32 33 32 32 31 29 28 26 22 22 22 24 24 24 24 24 24 24 23 22 23 24 23 20 19 18 15 15 15 10 13 16 18 15 9
24 26 29 30 31 32 33 33 34 33 33 32 30 28 26 26 20 21 23 24 26 26 24 23 23 22 20 16 17 17 13 9 8 7 7 6 5 7 13 16 19 16 5
26 28 29 30 32 34 35 34 34 33 34 34 33 29 26 27 22 23 22 22 23 24 23 20 17 16 14 12 11 10 8 7 9 12 13 14 15 14 14 13 19 12 7
24 27 29 30 31 32 35 33 33 33 34 34 33 32 27 25 26 24 22 19 19 17 17 15 12 9 7 4 4 6 10 14 16 17 16 17 18 15 14 13 10 9 8
27 29 31 31 32 33 33 33 32 30 31 34 33 35 31 25 22 19 15 14 13 12 11 8 5 0 5 4 6 9 16 17 16 21 21 19 18 15 14 12 9 6 3
30 31 33 36 36 33 32 34 33 31 30 31 26 27 29 22 17 12 10 7 8 7 5 3 6 9 9 12 14 17 17 19 19 18 15 13 11 11 10 9 8 7 7
30 31 33 34 34 30 25 27 30 29 28 24 22 21 25 20 13 9 7 5 2 3 5 8 12 14 16 17 17 18 17 18 16 15 14 12 11 11 10 8 10 10 10
29 31 31 24 24 26 25 26 29 31 26 25 23 22 20 20 12 9 7 5 7 8 16 18 18 18 20 21 21 19 16 13 10 9 9 9 10 10 8 6 7 6 4
28 29 26 26 25 24 26 29 25 27 23 21 22 21 22 16 9 8 6 8 9 12 16 16 16 17 16 15 15 14 12 10 9 8 9 8 8 7 7 6 5 4 5
28 32 32 29 26 25 25 24 25 28 19 19 16 16 13 11 13 11 10 11 11 13 16 15 14 14 14 13 11 10 12 11 9 9 8 8 9 9 8 9 8 7 7
30 33 33 32 28 25 23 24 22 22 19 18 15 12 11 14 15 15 16 14 14 15 15 15 14 12 12 11 11 12 12 11 10 9 9 8 8 7 8 7 6 7 7
33 34 32 32 30 28 26 26 25 23 23 16 9 10 11 16 14 18 16 16 18 16 15 14 12 11 11 12 12 11 10 9 8 7 7 6 7 6 7 6 6 5 4
33 33 31 31 30 25 24 24 23 21 21 22 15 14 14 17 16 14 16 18 18 17 14 14 13 11 11 10 9 9 8 8 7 6 7 6 5 5 5 4 3 3 3
34 33 32 29 27 25 24 24 24 21 20 22 25 19 15 13 13 16 18 18 18 17 15 14 12 11 9 8 8 7 6 7 6 6 5 4 5 5 5 4 3 3 4
30 30 28 25 25 25 25 25 24 23 22 22 22 13 14 17 18 18 19 19 17 15 13 11 11 10 8 7 7 5 5 5 5 5 5 4 4 4 4 4 4 5 5
26 26 25 25 25 26 26 25 22 22 22 22 24 20 16 21 20 19 19 18 16 14 12 10 9 8 7 6 5 5 4 4 4 4 3 4 3 3 3 4 5 5 6
26 25 25 25 24 23 23 20 20 19 21 24 23 20 20 20 19 18 18 16 14 12 10 9 7 6 6 5 5 4 4 4 3 3 2 3 3 4 5 5 5 6 6
24 24 23 22 22 21 20 15 14 17 20 23 21 20 19 18 17 16 15 13 11 10 9 7 6 6 5 5 4 4 4 3 3 3 3 4 5 5 6 6 7 8 8
20 19 18 17 15 11 8 9 11 15 19 20 20 19 18 16 15 13 12 11 9 9 8 7 7 6 6 6 6 5 5 5 5 5 6 6 6 6 7 8 9 9 9
Wind_Direction
47 44 40 35 30 22 14 3 351 341 331 321 313 303 295 291 287 281 277 275 264 260 259 260 260 259 254 250 249 248 241 239 254 273 274 273 265 267 262 263 262 260 259
37 37 34 28 23 15 10 4 356 349 343 335 328 316 309 304 298 290 284 279 275 266 263 261 259 258 256 255 252 246 244 240 243 264 267 263 260 260 259 258 257 258 256
32 27 23 19 13 8 3 357 352 347 343 338 330 326 320 314 305 297 289 284 278 271 267 264 264 264 261 257 251 250 249 248 245 252 266 267 257 252 251 252 253 253 251
26 20 16 11 5 358 353 349 345 343 338 333 332 328 324 319 313 309 302 292 278 274 273 267 270 265 267 262 259 257 257 251 248 247 255 253 249 252 244 237 223 234 235
19 13 8 1 356 352 348 344 340 337 334 331 328 323 320 317 315 313 307 301 296 290 286 284 281 277 275 274 268 262 260 255 249 244 247 237 224 210 209 221 213 209 209
11 6 0 357 355 353 350 346 342 339 336 333 330 326 321 318 317 312 306 303 300 296 293 290 286 283 278 275 271 269 267 259 248 239 245 238 232 227 231 204 178 153 171
1 359 357 352 349 347 344 343 342 340 339 337 333 329 322 319 318 312 306 298 294 289 289 291 290 285 282 279 277 274 269 264 260 255 242 238 234 244 229 183 186 174 171
357 354 350 346 343 341 340 339 338 336 334 333 331 329 322 319 314 310 308 301 294 290 286 284 281 283 281 280 280 279 275 268 249 243 248 256 258 259 229 198 169 140 129
348 344 342 340 338 336 336 335 333 331 329 328 326 324 317 314 313 307 304 296 293 291 288 283 280 278 279 272 269 272 269 241 228 224 223 231 233 187 178 161 144 136 126
341 336 334 333 332 331 330 330 329 327 324 323 322 322 316 311 309 303 298 296 291 294 294 290 289 287 286 274 252 247 199 163 137 123 118 119 126 131 137 148 157 150 116
331 328 326 326 324 324 323 324 323 322 319 317 317 315 313 310 305 304 298 284 279 284 288 290 289 282 279 269 218 197 180 150 137 126 124 126 126 119 111 115 127 147 131
323 319 318 317 317 317 317 319 320 317 315 313 315 313 313 310 302 297 292 276 285 284 285 278 259 252 135 129 123 132 141 145 135 122 115 114 113 113 114 119 124 126 138
317 314 313 313 312 313 311 313 319 317 311 308 306 306 308 314 301 291 264 273 279 282 266 224 157 126 116 111 120 132 138 136 126 114 110 110 122 134 135 133 133 136 138
314 311 311 310 309 307 303 305 310 310 308 301 298 296 305 306 294 248 243 256 224 150 136 139 135 121 117 114 120 132 125 122 122 125 124 124 130 138 140 142 135 134 121
312 311 311 305 301 299 295 290 294 303 301 294 289 291 295 294 280 232 230 209 160 139 134 132 126 122 115 113 109 111 115 120 120 127 131 132 137 141 135 136 144 149 119
311 310 306 304 299 296 298 298 290 294 296 282 277 277 282 270 244 215 204 167 158 150 137 122 116 119 118 122 116 111 109 113 117 129 130 132 134 128 125 129 138 138 132
306 305 303 300 294 292 292 290 290 301 290 284 279 266 256 238 206 192 165 150 150 157 139 137 130 128 125 124 126 127 118 112 113 117 119 121 129 133 137 128 128 130 128
304 302 301 299 293 289 285 283 279 278 280 268 258 248 241 208 196 181 164 162 141 142 139 133 125 122 119 117 116 116 113 112 115 119 125 128 130 125 124 132 140 142 151
305 301 299 296 292 286 282 278 274 267 260 240 212 211 217 217 192 172 179 170 148 137 135 129 127 124 118 118 116 114 113 118 125 129 123 118 114 120 123 129 128 133 149
306 304 302 297 291 285 278 272 267 254 240 226 213 191 181 175 180 182 172 159 148 142 140 135 130 124 121 119 118 119 127 130 128 125 116 112 112 112 122 137 151 164 177
306 302 299 292 282 279 274 272 261 241 230 220 224 218 214 210 184 166 154 149 149 147 144 140 135 133 128 126 129 134 139 134 130 123 125 126 120 122 132 148 161 160 169
307 302 295 284 284 281 276 275 255 231 223 214 215 202 197 193 173 164 149 144 144 143 142 143 141 138 138 140 134 138 148 138 136 138 136 133 137 141 142 153 169 170 173
304 297 291 287 282 280 279 276 247 223 211 199 190 185 177 165 166 158 148 145 145 146 146 146 147 147 146 144 144 150 147 143 144 139 146 140 143 158 169 187 190 187 187
314 301 294 290 288 283 279 268 236 215 198 190 181 172 163 159 162 157 151 149 148 147 151 154 157 160 158 159 160 156 153 153 158 159 160 161 181 192 200 207 209 213 207
323 314 304 298 296 289 278 246 213 195 185 180 168 164 159 159 162 158 156 154 155 159 162 169 173 174 176 177 182 181 180 182 191 198 204 208 214 218 224 226 225 219 215
342 338 330 323 314 301 258 212 189 180 169 161 160 158 156 163 166 164 163 166 168 176 185 186 188 194 199 205 211 214 213 216 221 227 231 230 233 236 241 243 240 238 232